TimeMST,TemperatureF,Dew PointF,Humidity,Sea Level PressureIn,VisibilityMPH,Wind Direction,Wind SpeedMPH,Gust SpeedMPH,PrecipitationIn,Events,Conditions,WindDirDegrees,DateUTC
12:53 AM,27.0,15.1,61,29.97,10.0,WSW,9.2,-,N/A,,Clear,250,2013-02-17 07:53:00
1:53 AM,28.9,16.0,58,29.95,10.0,WSW,10.4,-,N/A,,Clear,240,2013-02-17 08:53:00
2:53 AM,28.0,15.1,58,29.91,10.0,WSW,9.2,-,N/A,,Clear,240,2013-02-17 09:53:00
3:53 AM,26.1,15.1,63,29.89,10.0,SW,8.1,-,N/A,,Clear,230,2013-02-17 10:53:00
4:53 AM,28.0,15.1,58,29.88,10.0,WSW,6.9,-,N/A,,Clear,240,2013-02-17 11:53:00
5:53 AM,27.0,14.0,58,29.90,10.0,SW,9.2,-,N/A,,Clear,220,2013-02-17 12:53:00
6:53 AM,28.0,16.0,61,29.89,10.0,SW,8.1,-,N/A,,Clear,230,2013-02-17 13:53:00
7:53 AM,42.1,15.1,34,29.85,10.0,SW,13.8,-,N/A,,Clear,220,2013-02-17 14:53:00
8:53 AM,48.0,15.1,27,29.82,10.0,SSW,11.5,-,N/A,,Clear,210,2013-02-17 15:53:00
9:53 AM,55.0,14.0,20,29.78,10.0,SSW,11.5,-,N/A,,Clear,210,2013-02-17 16:53:00
10:53 AM,62.1,9.0,12,29.72,10.0,SW,15.0,-,N/A,,Clear,230,2013-02-17 17:53:00
11:53 AM,64.0,6.1,10,29.68,10.0,SW,17.3,-,N/A,,Clear,220,2013-02-17 18:53:00
12:53 PM,64.9,3.9,9,29.63,10.0,SSW,15.0,-,N/A,,Clear,200,2013-02-17 19:53:00
1:53 PM,64.9,-0.9,7,29.58,10.0,SSW,11.5,21.9,N/A,,Clear,200,2013-02-17 20:53:00
2:53 PM,63.0,-2.9,7,29.57,10.0,SW,10.4,-,N/A,,Clear,220,2013-02-17 21:53:00
3:53 PM,62.1,-4.0,7,29.55,10.0,SW,15.0,-,N/A,,Clear,220,2013-02-17 22:53:00
4:53 PM,57.9,-0.9,9,29.53,10.0,SSW,9.2,-,N/A,,Clear,200,2013-02-17 23:53:00
5:53 PM,48.9,1.0,14,29.55,10.0,South,4.6,-,N/A,,Clear,190,2013-02-18 00:53:00
6:53 PM,48.0,-0.0,14,29.53,10.0,South,5.8,-,N/A,,Clear,170,2013-02-18 01:53:00
7:53 PM,43.0,5.0,21,29.49,10.0,South,8.1,-,N/A,,Clear,190,2013-02-18 02:53:00
8:53 PM,48.9,5.0,17,29.49,10.0,North,15.0,26.5,N/A,,Clear,350,2013-02-18 03:53:00
9:03 PM,48.2,10.4,22,29.53,10.0,North,19.6,28.8,N/A,,Clear,350,2013-02-18 04:03:00
10:53 PM,39.9,24.1,53,29.53,10.0,North,32.2,41.4,N/A,,Clear,350,2013-02-18 05:53:00
11:53 PM,36.0,25.0,64,29.59,10.0,NNW,26.5,35.7,N/A,,Clear,340,2013-02-18 06:53:00